Flag for Philippines Weather past 2 weeks in Tarlac City, Philippines

Now
88 °F

Scattered clouds.


Feels Like: 90 °F
Forecast: 73 / 94 °F
Wind: 9 mph from East

Location: Clarkfield Pampanga International Airport

Current Time: Mar 29, 2015 at 12:32:41 PM

Latest Report: Mar 29, 2015 at 12:00 PM


Visibility: N/A

Pressure: 29.95 "Hg

Humidity: 49%

Dew point: 66 °F

Location of Tarlac CityLocation

Historic Weather in Tarlac City — Graph

°F

Tarlac City temperature yesterday

Maximum temperature yesterday: 90 °F (at 2:00 PM)
Minimum temperature yesterday: 75 °F (at 2:00 AM)
Average temperature yesterday: 81 °F

Past Weeks' High & Low Weather Summary

 TemperatureHumidityPressure
High93 °F (Mar 20, 3:00 PM)100% (Mar 20, 6:00 AM)30.15 "Hg (Mar 20, 6:00 AM)
Low70 °F (Mar 18, 4:00 AM)30% (Mar 19, 3:00 PM)29.83 "Hg (Mar 18, 3:00 PM)
Average80 °F65%29.98 "Hg
* Reported Mar 14 11:00 AM — Mar 29 11:00 AM, Tarlac City, Weather by CustomWeather, © 2015

Note: Actual official high and low records may vary slightly from our data, if they occured in-between our weather recording intervals... More about our weather records

Advertising

Tarlac City weather history for previous 24 hours

 ConditionsComfort  
Time TempWeatherWind HumidityBarometerVisibility
11:00 AM
Sun, Mar 29
86 °FPartly sunny.9 mph52%30.01 "HgN/A
10:00 AM84 °FPartly sunny.2 mph55%30.01 "HgN/A
9:00 AM82 °FPartly sunny.2 mph62%30.04 "HgN/A
8:00 AM79 °FPartly sunny.2 mph70%30.01 "HgN/A
7:00 AM75 °FScattered clouds.5 mph78%29.98 "HgN/A
6:00 AM73 °FScattered clouds.7 mph78%29.95 "HgN/A
5:00 AM73 °FPassing clouds.8 mph78%29.95 "HgN/A
4:00 AM75 °FPassing clouds.5 mph74%29.92 "HgN/A
3:00 AM73 °FPassing clouds.7 mph78%29.95 "HgN/A
2:00 AM73 °FPassing clouds.3 mph78%29.95 "HgN/A
1:00 AM77 °FPassing clouds.7 mph69%29.98 "HgN/A
12:00 AM75 °FPassing clouds.1 mph74%30.01 "HgN/A
11:00 PM
Sat, Mar 28
77 °FPassing clouds.6 mph69%30.01 "HgN/A
10:00 PM79 °FPassing clouds.5 mph65%30.01 "HgN/A
9:00 PM79 °FPassing clouds.3 mph65%30.01 "HgN/A
8:00 PM81 °FPassing clouds.7 mph62%29.98 "HgN/A
7:00 PM82 °FPassing clouds.7 mph55%29.95 "HgN/A
6:00 PM86 °FScattered clouds.10 mph46%29.92 "HgN/A
5:00 PM88 °FScattered clouds.9 mph46%29.92 "HgN/A
4:00 PM90 °FPartly sunny.10 mph43%29.89 "HgN/A
3:00 PM90 °FBroken clouds.10 mph43%29.89 "HgN/A
2:00 PM90 °FBroken clouds.9 mph46%29.92 "HgN/A
1:00 PM88 °FBroken clouds.9 mph49%29.95 "HgN/A
12:00 PM86 °FBroken clouds.3 mph52%29.98 "HgN/A
Weather by CustomWeather, © 2015

See weather overviewHow to use our weather pages